Stations météo

réclame
Mon MeteoGroup
Baruth, Allemagne (10376): Température de l'air & dewpoint: 12.01.2019 13:00:00 - 18.01.2019 13:00:00 (CET)Baruth, Allemagne (10376): Température de l'air 5cm & Température de l'air -5cm: 12.01.2019 13:00:00 - 18.01.2019 13:00:00 (CET)Baruth, Allemagne (10376): Température de l'air -20cm & Température de l'air -100cm: 12.01.2019 13:00:00 - 18.01.2019 13:00:00 (CET)Baruth, Allemagne (10376): Vitesse du vent & gusts: 12.01.2019 13:00:00 - 18.01.2019 13:00:00 (CET)Baruth, Allemagne (10376): Direction du vent: 12.01.2019 13:00:00 - 18.01.2019 13:00:00 (CET)Baruth, Allemagne (10376): reduced air pressure: 12.01.2019 13:00:00 - 18.01.2019 13:00:00 (CET)Baruth, Allemagne (10376): visibility: 12.01.2019 13:00:00 - 18.01.2019 13:00:00 (CET)Baruth, Allemagne (10376): Ensoleillement: 12.01.2019 13:00:00 - 18.01.2019 13:00:00 (CET)Baruth, Allemagne (10376): Quantités de précipitations: 12.01.2019 13:00:00 - 18.01.2019 13:00:00 (CET)
Date & Time tt [°C] td [°C] tt 5cm [°C] tt -5cm [°C] tt -20cm [°C] tt -100cm [°C] ff [km/h] ff [knt] fx [km/h] fx [knt] dd ppp [hPa] vv [km] sd [min] rr [mm]
18.01.2019 13:00:00 1,7 -4,6 2,3 0,6 2,4 6,0 17 9 29 16 W 1018,6 54 54 0,0
18.01.2019 12:00:00 1,1 -5,2 1,3 0,6 2,4 6,0 13 7 23 13 W 1018,2 33 55 0,0
18.01.2019 11:00:00 0,3 -5,0 0,9 0,6 2,5 6,0 13 7 29 16 WNW 1017,7 26 58 0,0
18.01.2019 10:00:00 -0,3 -5,7 -0,3 0,6 2,6 6,0 13 7 27 15 WNW 1016,7 55 40 0,0
18.01.2019 09:00:00 -0,9 -6,4 -1,7 0,7 2,7 6,0 14 7 26 14 WNW 1015,2 70 0 0,0
18.01.2019 08:00:00 -0,5 -4,8 -1,0 0,7 2,8 6,0 13 7 35 19 NW 1013,6 70 0 0,6
18.01.2019 07:00:00 -0,1 -3,0 -0,4 0,8 2,9 6,0 21 11 29 16 W 1012,0 70 0 0,0
18.01.2019 06:00:00 -0,5 -3,0 -1,3 0,8 3,0 6,0 15 8 32 17 WNW 1011,1 70 0 0,0
18.01.2019 05:00:00 -0,6 -3,0 -1,2 0,9 3,2 6,0 11 6 34 18 WNW 1009,7 70 0 0,0
18.01.2019 04:00:00 -0,6 -2,6 -0,7 1,1 3,3 6,0 16 9 46 25 NW 1008,2 3,0 0 0,1
18.01.2019 03:00:00 1,9 -2,1 1,4 1,6 3,4 6,0 29 16 51 28 W 1006,1 64 0 0,0
18.01.2019 02:00:00 2,1 -1,5 1,5 1,8 3,6 6,0 30 16 44 24 W 1005,7 53 0 0,0
18.01.2019 01:00:00 1,9 -1,2 1,2 1,9 3,7 6,0 21 12 35 19 W 1005,1 66 0 0,0
18.01.2019 00:00:00 1,8 -0,4 0,8 2,2 3,8 6,0 20 11 42 23 WSW 1004,4 38 0 0,1
17.01.2019 23:00:00 2,6 0,1 2,0 2,5 3,9 6,0 23 12 37 20 W 1003,6 38 0 0,0
17.01.2019 22:00:00 2,8 0,8 2,3 2,9 4,0 6,0 24 13 36 20 W 1002,7 37 0 0,0
17.01.2019 21:00:00 2,5 1,0 2,1 3,0 4,1 6,0 22 12 35 19 W 1001,6 43 0 0,0
17.01.2019 20:00:00 2,2 1,1 1,9 3,4 4,2 6,0 21 11 60 32 W 1000,3 34 0 0,5
17.01.2019 19:00:00 5,7 1,5 4,8 3,2 4,2 6,0 22 12 36 19 SSW 998,1 70 0 0,0
17.01.2019 18:00:00 5,0 1,8 3,8 3,0 4,4 6,0 12 6 21 11 S 998,6 70 0 0,0
17.01.2019 17:00:00 5,0 1,5 3,2 3,5 4,5 6,0 14 8 27 14 SW 999,1 70 0 0,0
17.01.2019 16:00:00 5,7 1,9 5,1 4,3 4,5 6,0 17 9 34 18 SW 999,6 70 0 0,0
17.01.2019 15:00:00 6,1 1,5 5,0 4,9 4,5 6,0 17 9 32 17 WSW 999,8 70 0 0,0
17.01.2019 14:00:00 6,6 1,7 6,2 5,5 4,3 6,0 22 12 35 19 WSW 1000,2 70 7 0,0
17.01.2019 13:00:00 6,9 1,6 7,0 5,2 4,1 6,0 20 11 41 22 WSW 1000,5 70 5 0,0
17.01.2019 12:00:00 6,6 1,7 6,6 4,8 3,9 6,0 22 12 38 21 WSW 1000,9 57 9 0,0
17.01.2019 11:00:00 6,1 1,9 5,9 4,1 3,8 6,0 19 11 44 24 WSW 1001,4 59 0 0,0
17.01.2019 10:00:00 6,0 1,5 5,7 3,6 3,7 6,0 29 16 46 25 WSW 1000,8 47 0 0,0
17.01.2019 09:00:00 5,4 1,5 4,8 3,3 3,6 6,0 27 15 44 24 WSW 1000,2 43 0 0,0
17.01.2019 08:00:00 5,3 1,2 4,6 3,1 3,6 6,0 28 15 49 26 WSW 999,9 29 0 0,0
17.01.2019 07:00:00 5,4 0,5 4,9 2,9 3,5 6,0 29 15 48 26 WSW 999,5 40 0 0,0
17.01.2019 06:00:00 5,3 0,1 4,9 2,7 3,5 6,0 31 17 47 26 WSW 999,4 37 0 0,0
17.01.2019 05:00:00 4,8 -0,4 4,3 2,3 3,5 6,0 27 14 37 20 WSW 999,4 35 0 0,0
17.01.2019 04:00:00 4,2 -0,5 3,5 1,9 3,6 5,9 19 10 31 17 SW 999,7 37 0 0,0
17.01.2019 03:00:00 3,5 -0,6 2,2 1,9 3,8 5,9 17 9 29 15 SW 1000,0 35 0 0,0
17.01.2019 02:00:00 3,6 -0,4 2,6 2,0 3,9 5,9 18 10 32 17 SW 1000,4 31 0 0,0
17.01.2019 01:00:00 3,5 -0,5 2,4 2,2 4,1 5,9 19 10 31 17 SW 1001,0 28 0 0,0
17.01.2019 00:00:00 3,5 -0,5 2,4 2,4 4,3 5,9 14 8 28 15 SW 1001,9 28 0 0,0
16.01.2019 23:00:00 3,7 -0,5 2,7 2,9 4,4 5,9 16 9 28 15 SSW 1002,8 31 0 0,0
16.01.2019 22:00:00 4,0 -0,2 3,2 3,4 4,6 5,9 16 9 29 16 SSW 1003,6 35 0 0,0
16.01.2019 21:00:00 4,7 0,4 4,1 4,0 4,7 5,9 18 10 32 18 SSW 1004,0 34 0 0,0
16.01.2019 20:00:00 5,3 1,6 4,7 4,2 4,7 5,9 14 7 34 18 SW 1004,9 42 0 0,0
16.01.2019 19:00:00 5,8 1,3 5,3 4,4 4,8 5,9 19 10 39 21 SW 1005,5 57 0 0,0
16.01.2019 18:00:00 6,2 1,6 5,8 4,6 4,8 5,9 27 15 46 25 SW 1006,1 67 0 0,0
16.01.2019 17:00:00 6,5 2,1 6,0 4,8 4,8 5,9 23 12 40 22 SW 1006,4 68 0 0,0
16.01.2019 16:00:00 6,6 2,4 6,2 5,1 4,8 5,9 24 13 41 22 SW 1006,8 61 0 0,0
16.01.2019 15:00:00 6,6 2,9 6,3 5,3 4,7 5,9 19 11 39 21 SW 1007,2 67 0 0,0
16.01.2019 14:00:00 6,6 3,0 6,4 5,3 4,6 5,9 23 12 37 20 SW 1007,7 69 0 0,0
16.01.2019 13:00:00 6,6 3,1 6,4 5,2 4,5 5,9 23 12 37 20 WSW 1008,3 63 0 0,0
16.01.2019 12:00:00 6,2 3,2 6,1 4,9 4,5 5,9 22 12 38 21 WSW 1009,1 50 0 0,0
16.01.2019 11:00:00 5,8 3,5 5,6 4,7 4,4 5,9 24 13 32 17 SW 1009,6 44 0 0,0
16.01.2019 10:00:00 5,5 3,5 5,0 4,6 4,4 5,9 23 12 35 19 WSW 1009,6 18 0 0,0
16.01.2019 09:00:00 5,9 3,0 5,5 4,5 4,4 5,9 20 11 29 16 WSW 1009,5 25 0 0,0
16.01.2019 08:00:00 6,0 3,2 5,3 4,6 4,4 5,9 21 11 32 17 W 1009,3 32 0 0,0
16.01.2019 07:00:00 6,3 3,5 5,7 4,7 4,3 5,9 21 11 36 20 W 1009,3 23 0 0,0
16.01.2019 06:00:00 6,5 4,2 5,8 4,9 4,2 5,9 26 14 44 24 W 1009,3 13 0 0,1
16.01.2019 05:00:00 6,7 4,6 6,0 4,9 4,1 5,9 26 14 41 22 W 1009,4 11 0 0,0
16.01.2019 04:00:00 6,7 4,9 6,1 4,8 4,0 5,9 24 13 46 25 W 1009,4 12 0 0,0
16.01.2019 03:00:00 6,4 5,1 5,9 4,7 3,9 5,9 27 14 45 25 W 1009,0 10 0 0,0
16.01.2019 02:00:00 6,0 5,1 5,7 4,6 3,8 5,9 27 15 46 25 W 1008,5 4,3 0 0,2
16.01.2019 01:00:00 5,9 4,9 5,6 4,5 3,7 5,9 30 16 45 24 W 1008,3 2,9 0 0,2
16.01.2019 00:00:00 6,0 4,8 5,5 4,4 3,5 5,9 28 15 46 25 W 1008,5 6 0 0,8
15.01.2019 23:00:00 6,0 4,9 5,6 4,2 3,4 5,9 30 16 52 28 W 1008,5 6 0 0,5
15.01.2019 22:00:00 6,0 4,6 5,4 4,0 3,2 6,0 32 18 48 26 W 1008,3 6 0 0,2
15.01.2019 21:00:00 5,8 4,6 5,3 3,8 3,0 6,0 34 18 50 27 W 1008,1 3,3 0 0,0
15.01.2019 20:00:00 6,3 3,6 5,4 3,4 2,9 6,0 33 18 46 25 W 1007,8 13 0 0,0
15.01.2019 19:00:00 4,8 3,1 4,2 3,1 2,8 6,0 26 14 40 22 W 1007,8 13 0 0,0
15.01.2019 18:00:00 4,2 2,8 3,7 2,9 2,6 6,0 26 14 40 22 WSW 1008,1 15 0 0,1
15.01.2019 17:00:00 4,2 3,1 3,8 2,7 2,5 6,0 24 13 36 20 WSW 1008,7 6 0 0,6
15.01.2019 16:00:00 3,6 2,4 3,2 2,7 2,3 6,0 21 12 34 18 WSW 1009,1 7 0 0,1
15.01.2019 15:00:00 3,9 2,5 3,6 2,6 2,1 6,0 23 13 47 25 W 1009,5 11 0 0,2
15.01.2019 14:00:00 4,2 1,8 3,7 2,1 1,9 6,1 28 15 38 20 W 1010,1 17 0 0,0
15.01.2019 13:00:00 3,9 1,4 3,3 0,7 1,8 6,1 24 13 42 23 W 1010,5 25 0 0,0
15.01.2019 12:00:00 3,4 1,0 3,1 0,2 1,8 6,1 31 17 52 28 W 1010,9 25 0 0,0
15.01.2019 11:00:00 2,3 0,4 1,8 0,2 1,8 6,1 30 16 57 31 W 1011,1 33 0 0,3
15.01.2019 10:00:00 3,4 -1,3 3,1 0,2 1,8 6,1 34 18 54 29 W 1011,1 60 0 0,0
15.01.2019 09:00:00 2,9 -1,6 2,5 0,2 1,9 6,1 31 17 53 28 W 1011,4 44 0 0,0
15.01.2019 08:00:00 2,8 -1,7 2,3 0,2 1,9 6,1 31 17 44 24 W 1011,4 47 0 0,0
15.01.2019 07:00:00 2,7 -1,5 2,3 0,2 1,9 6,1 27 15 48 26 W 1011,6 38 0 0,0
15.01.2019 06:00:00 2,5 -1,6 1,9 0,2 2,0 6,1 33 18 52 28 W 1011,7 35 0 0,0
15.01.2019 05:00:00 1,6 -2,1 0,7 0,2 2,0 6,1 27 14 45 24 W 1011,5 38 0 0,0
15.01.2019 04:00:00 2,0 -2,4 1,4 0,2 2,1 6,1 29 16 42 23 W 1011,2 37 0 0,0
15.01.2019 03:00:00 2,1 -2,5 1,3 0,2 2,1 6,1 27 14 49 26 W 1010,7 38 0 0,0
15.01.2019 02:00:00 2,0 -2,5 1,5 0,2 2,2 6,1 24 13 45 24 W 1010,4 43 0 0,0
15.01.2019 01:00:00 1,3 -3,0 0,5 0,2 2,3 6,1 25 14 43 23 WNW 1010,1 41 0 0,0
15.01.2019 00:00:00 0,3 -3,3 -0,3 0,2 2,4 6,1 21 11 41 22 W 1010,2 46 0 0,0
14.01.2019 23:00:00 0,3 -3,7 -0,8 0,3 2,5 6,1 31 17 46 25 W 1010,0 48 0 0,0
14.01.2019 22:00:00 0,2 -3,8 -0,9 0,4 2,6 6,1 29 16 51 27 W 1009,8 50 0 0,0
14.01.2019 21:00:00 0,2 -4,6 -0,8 0,5 2,8 6,1 26 14 39 21 W 1009,2 54 0 0,0
14.01.2019 20:00:00 -0,1 -5,6 -1,2 0,6 2,9 6,1 23 12 39 21 W 1008,6 70 0 0,0
14.01.2019 19:00:00 0,9 -6,3 -0,1 0,7 3,1 6,1 24 13 39 21 W 1007,7 70 0 0,0
14.01.2019 18:00:00 1,0 -6,6 -0,2 0,9 3,3 6,1 23 12 37 20 WNW 1007,1 70 0 0,0
14.01.2019 17:00:00 1,6 -7,0 0,4 1,1 3,5 6,1 19 10 42 23 WNW 1006,0 70 8 0,0
14.01.2019 16:00:00 2,3 -7,2 1,7 1,7 3,6 6,1 22 12 55 30 NW 1004,4 59 9 0,0
14.01.2019 15:00:00 3,0 -6,1 2,7 2,5 3,6 6,1 24 13 49 26 WNW 1002,9 70 3 0,0
14.01.2019 14:00:00 2,9 -5,5 2,7 2,8 3,6 6,1 22 12 53 28 WNW 1002,3 69 5 0,0
14.01.2019 13:00:00 3,5 -6,1 3,6 3,3 3,5 6,1 31 17 60 33 WNW 1001,5 57 40 0,0
14.01.2019 12:00:00 3,3 -5,1 3,6 2,7 3,4 6,1 29 16 57 31 WNW 1001,3 36 51 0,0
14.01.2019 11:00:00 3,0 -4,3 3,0 1,8 3,5 6,1 29 16 50 27 WNW 1001,2 46 47 0,0
14.01.2019 10:00:00 2,4 -3,3 2,0 1,3 3,6 6,1 25 14 50 27 WNW 1000,5 49 4 0,0
14.01.2019 09:00:00 2,6 -3,3 1,9 1,1 3,9 6,1 29 16 49 26 WNW 999,6 44 7 0,0
14.01.2019 08:00:00 2,4 -3,3 1,3 1,2 4,2 6,1 30 16 54 29 W 998,1 45 0 0,0
14.01.2019 07:00:00 2,7 -4,1 1,7 2,0 4,4 6,0 21 11 57 31 WNW 997,6 45 0 0,0
14.01.2019 06:00:00 3,8 -2,8 3,3 3,1 4,6 6,0 31 17 66 36 WNW 996,5 39 0 0,0
14.01.2019 05:00:00 4,5 -1,3 4,1 3,3 4,7 6,0 22 12 57 31 WNW 995,0 35 0 0,0
14.01.2019 04:00:00 4,8 -0,3 4,5 3,6 4,8 6,0 26 14 49 26 WNW 993,5 36 0 0,0
14.01.2019 03:00:00 5,4 -0,5 4,8 3,8 5,0 6,0 28 15 54 29 WNW 992,0 37 0 0,0
14.01.2019 02:00:00 5,5 0,3 4,4 4,0 5,1 6,0 29 16 57 31 WNW 990,7 43 0 0,0
14.01.2019 01:00:00 5,3 3,4 4,3 4,5 5,2 6,0 24 13 57 31 W 989,3 57 0 0,3
14.01.2019 00:00:00 6,2 3,0 5,5 4,6 5,3 6,0 32 18 49 27 W 988,9 69 0 0,0
13.01.2019 23:00:00 6,2 3,6 5,1 5,2 5,4 6,0 31 17 53 29 WNW 988,9 55 0 0,0
13.01.2019 22:00:00 6,5 3,3 5,5 5,3 5,4 6,0 30 16 59 32 W 988,5 70 0 0,0
13.01.2019 21:00:00 6,8 4,1 5,9 5,7 5,4 6,0 27 15 56 30 WNW 988,3 70 0 3,0
13.01.2019 20:00:00 8,0 6,4 7,2 6,2 5,4 5,9 37 20 66 36 W 987,3 4,1 0 1,3
13.01.2019 19:00:00 7,9 7,1 7,4 6,1 5,3 5,9 29 16 46 25 WSW 988,2 6 0 0,9
13.01.2019 18:00:00 7,8 6,5 7,2 5,9 5,2 5,9 21 11 33 18 W 989,5 70 0 0,1
13.01.2019 17:00:00 7,1 6,3 6,8 5,8 5,1 5,9 22 12 35 19 W 991,1 25 0 0,5
13.01.2019 16:00:00 6,7 5,8 6,4 5,7 5,0 5,9 23 12 46 25 W 991,9 2,9 0 0,1
13.01.2019 15:00:00 6,6 5,3 6,2 5,6 4,9 5,9 25 13 45 25 WSW 992,7 27 0 0,2
13.01.2019 14:00:00 6,2 4,8 5,8 5,7 4,8 5,9 29 16 49 26 WSW 994,1 16 0 0,7
13.01.2019 13:00:00 6,1 4,5 5,7 5,6 4,7 5,9 29 16 46 25 WSW 996,1 7 0 0,5
13.01.2019 12:00:00 5,9 4,6 5,7 5,3 4,6 5,9 24 13 40 21 WSW 998,0 34 0 0,7
13.01.2019 11:00:00 5,7 4,0 5,3 5,0 4,5 5,9 24 13 37 20 WSW 999,8 20 0 0,2
13.01.2019 10:00:00 5,9 4,6 5,5 4,7 4,4 5,9 23 12 34 18 WSW 1000,9 4,9 0 0,0
13.01.2019 09:00:00 5,6 4,3 5,2 4,5 4,4 5,9 21 11 33 18 WSW 1001,7 7 0 0,0
13.01.2019 08:00:00 5,7 4,0 5,1 4,4 4,4 5,9 21 12 32 18 W 1002,3 63 0 0,0
13.01.2019 07:00:00 5,4 4,0 4,8 4,3 4,3 5,9 19 10 38 20 W 1002,7 70 0 0,0
13.01.2019 06:00:00 5,5 3,9 4,8 4,3 4,3 5,9 20 11 31 17 W 1002,9 63 0 0,0
13.01.2019 05:00:00 5,3 3,8 4,7 4,2 4,3 5,8 20 11 33 18 W 1003,3 70 0 0,0
13.01.2019 04:00:00 5,3 3,7 4,7 4,2 4,3 5,8 23 13 43 23 W 1003,4 50 0 0,0
13.01.2019 03:00:00 5,5 3,6 4,8 4,3 4,3 5,8 28 15 45 24 W 1003,5 50 0 0,1
13.01.2019 02:00:00 5,4 3,7 4,7 4,2 4,2 5,8 22 12 34 18 W 1003,3 28 0 0,0
13.01.2019 01:00:00 5,4 3,9 4,8 4,1 4,2 5,8 22 12 31 17 WSW 1003,6 27 0 0,0
13.01.2019 00:00:00 5,1 3,9 4,6 4,2 4,2 5,8 24 13 34 19 W 1004,0 24 0 0,3
12.01.2019 23:00:00 5,1 3,9 4,6 4,0 4,2 5,8 21 11 35 19 WSW 1004,3 13 0 0,0
12.01.2019 22:00:00 5,2 3,8 4,6 4,1 4,1 5,8 24 13 35 19 W 1004,9 25 0 0,3
12.01.2019 21:00:00 4,8 3,7 4,4 3,9 4,1 5,8 21 11 35 19 W 1005,3 9 0 0,1
12.01.2019 20:00:00 4,8 3,6 4,3 4,0 4,2 5,8 27 15 41 22 W 1005,6 6 0 0,2
12.01.2019 19:00:00 4,5 3,2 4,0 4,0 4,2 5,8 25 13 46 25 WSW 1005,7 10 0 0,7
12.01.2019 18:00:00 4,5 3,1 4,0 4,0 4,2 5,8 28 15 45 24 WSW 1006,5 10 0 0,5
12.01.2019 17:00:00 4,4 2,8 3,9 4,2 4,2 5,8 25 14 42 23 WSW 1007,6 13 0 0,4
12.01.2019 16:00:00 5,0 3,2 4,4 4,6 4,2 5,8 23 13 41 22 WSW 1008,7 10 0 0,3
12.01.2019 15:00:00 5,6 2,6 4,9 4,9 4,1 5,8 19 11 41 22 W 1009,6 62 0 0,0
12.01.2019 14:00:00 6,3 2,5 5,5 5,2 3,9 5,8 24 13 40 22 W 1010,4 70 1 0,0
12.01.2019 13:00:00 6,1 3,4 5,3 4,9 3,7 5,8 24 13 42 23 W 1011,7 70 0 0,2

tt = Température de l'air
td = dewpoint
tt 5cm = Température de l'air 5cm
tt -5cm = Température de l'air -5cm
tt -20cm = Température de l'air -20cm
tt -100cm = Température de l'air -100cm
ff = Vitesse du vent
fx = gusts
dd = Direction du vent
ppp = reduced air pressure
vv = visibility
sd = Ensoleillement
rr = Quantités de précipitations

stations d'obs. à proximité